Location: Newark
(21.1200°N, 73.4000°E)
Time: 14:12:16
(UTC+00:00)

Courier 1B Rocket - Pass Details

Date: 23 January 2020
Orbit: 920 x 1202 km, 28.2° (Epoch: 24 February)

Event Time Altitude Azimuth Distance (km) Brightness Sun altitude
Rises 11:15:20 0° 290° (WNW) 3,668 8.6 19.2°
Reaches altitude 10° 11:18:05 10° 294° (WNW) 2,685 7.9 18.6°
Maximum altitude 11:24:26 60° 14° (NNE) 1,050 5.3 17.3°
Drops below altitude 10° 11:30:34 10° 94° (E) 2,602 6.8 16.1°
Sets 11:33:12 0° 98° (E) 3,545 7.5 15.6°
